Location: Newark
(45.5000°N, 11.4167°E)
Time: 18:06:49
(UTC+00:00)

Vanguard 3 - Pass Details

Date: 30 August 2019
Orbit: 508 x 3263 km, 33.4° (Epoch: 14 September)

Event Time Altitude Azimuth Distance (km) Brightness Sun altitude
Rises 17:36:51 0° 264° (W) 4,790 12.9 2.6°
Reaches altitude 10° 17:41:26 10° 251° (WSW) 3,269 11.4 1.8°
Maximum altitude 17:46:51 21° 206° (SSW) 1,960 9.3 0.8°
Drops below altitude 10° 17:50:44 10° 157° (SSE) 2,234 9.1 0.2°
Sets 17:53:12 0° 139° (SE) 2,926 9.5 -0.3°
